Flight Information

DEPARTURE
CARLSBAD, CA
Elevation:
330
Runways:
6/24 - 4897x150 - ASPH-G
H1 - 40x50 - CONC-G
Active PE Departure:
24
Current PE ATIS:
Y
Altimeter:
29.99
Remarks:
ATIS:
120.15 760-438-2117
Clearance Delivery:
134.85
Ground:
121.8
Tower:
118.6
DESTINATION
,
Elevation:
TPA:
1000 (est.)


6754 NM74° True-13° Var60° HDG

Flight Plan:
(click to file on line)

1. Type
2. Aircraft Identification
3. Aircraft Type / Special Equipment
4. True Airspeed
kts
5. Departure Airport
(ICAO code)
6. Arriving Airport
(ICAO code)
7. Cruising Altitude
ft
8. Alternate Airport
(ICAO code)
9. Route of Flight
10. Remarks


00:00:00 Departure ATIS: Destination ATIS:

Clearance Limit:
Route:
Altitude: Expect in minutes
Frequency:
Transponder: (7500 Hijack / 7600 Lost Comms / 7700 Emergency)


KCRQ 101653Z VRB04KT 10SM CLR 22/16 A2998 RMK AO2 SLP151 T02220161
Time: 2020-07-10T16:53:00Z
1594400633
Winds: variable
Visibility: 10.0 sm
Clouds (AGL): CLR
Temperature: 22.2 C
Dew Point: 16.1 C
Pressure: 29.97933 in Hgbr


Notes:

Data extracted from FAA Digital Chart Supplement. Effective: 0901Z Thursday, May 21, 2020 to 0901Z Thursday, Jul 16, 2020
Current ATIS data is provided courtisy of PilotEdge.